#timestamp,LO_Frequency,Hit,StdDev 
1702346415.6,286047000.3,N
1702346435.4,286046999.9,N
1702346455.2,286047001.2,N
1702346475.1,286047000.8,N
1702346476.0,286047000.8,N
1702346495.8,286047000.5,N
1702346515.6,286047002.4,N
1702346535.5,286047000.6,N
1702346555.3,286046998.2,N
1702346575.2,286047000.1,N
1702346595.9,286047002.8,N
1702346615.7,286047000.2,N
1702346635.6,286047000.6,N
1702346655.4,286047001.1,N
1702346675.2,286047000.1,N
1702346695.1,286047000.0,N
1702346696.0,286047000.0,N
1702346715.8,286047001.0,N
1702346735.7,286047000.0,N
1702346755.5,286047002.7,N
1702346775.3,286046999.8,N
1702346795.2,286047000.3,N
1702346815.0,286047001.1,N
1702346815.9,286047001.1,N
1702346835.7,286047000.0,N
1702346855.6,286046997.0,N
1702346875.4,286046998.8,N
1702346895.3,286046998.6,N
1702346915.1,286047002.7,N
1702346916.0,286047002.7,N
1702346935.8,286047000.4,N
1702346955.7,286047000.9,N
1702346975.5,286046998.5,N
1702346995.3,286047000.6,N
1702347015.2,286047000.5,N
1702347035.0,286046998.2,N
1702347035.9,286046998.2,N
1702347055.8,286046999.0,N
1702347075.6,286047000.8,N
1702347095.4,286047002.4,N
1702347115.3,286047002.6,N
1702347135.1,286047002.2,N
1702347155.9,286047002.8,N
1702347175.7,286047000.4,N
1702347195.5,286046998.2,N
1702347215.4,286046998.1,N
1702347235.2,286046999.8,N
1702347255.0,286047000.1,N
1702347255.9,286047000.1,N
1702347275.8,286046999.7,N
1702347295.6,286046998.2,N
1702347315.5,286047001.2,N
1702347335.3,286046998.6,N
1702347355.1,286046996.5,N
1702347375.9,286046996.6,N
1702347395.7,286046999.0,N
1702347415.5,286046998.3,N
1702347435.4,286046997.0,N
1702347455.2,286046998.2,N
1702347475.1,286046998.5,N
1702347476.0,286046998.5,N
1702347495.8,286046999.3,N
1702347515.6,286046999.5,N
1702347535.5,286047001.2,N
1702347555.3,286047001.0,N
1702347575.1,286047000.6,N
1702347595.9,286046999.8,N
1702347615.7,286046998.6,N
1702347635.6,286047000.0,N
1702347655.4,286047000.8,N
1702347675.2,286047001.2,N
1702347695.1,286047001.1,N
1702347696.0,286047001.1,N
1702347715.8,286047000.8,N
1702347735.6,286046998.6,N
1702347755.5,286046998.5,N
1702347775.3,286046998.5,N
1702347795.2,286047000.7,N
1702347815.9,286046998.2,N
1702347835.7,286046998.4,N
1702347855.6,286047000.9,N
1702347875.4,286047002.7,N
1702347895.2,286047001.0,N
1702347915.1,286047000.2,N
1702347916.0,286047000.2,N
1702347935.8,286046999.8,N
1702347955.7,286047004.0,Y
1702347975.5,286047002.0,P
1702347995.3,286046999.8,N
1702348015.2,286047002.7,N
1702348035.0,286047002.1,N
1702348035.9,286047002.1,N
1702348055.8,286047001.0,N
1702348075.6,286046999.6,N
1702348095.4,286046999.6,N
1702348115.3,286046999.1,N
1702348135.1,286046998.6,N
1702348155.8,286046998.3,N
1702348175.7,286047000.9,N
1702348195.5,286047000.8,N
1702348215.4,286047000.6,N
1702348235.2,286047000.4,N
1702348255.0,286046998.4,N
1702348255.9,286046998.4,N
1702348275.8,286046999.7,N
1702348295.6,286047000.8,N
1702348315.4,286047000.0,N
1702348335.3,286047002.5,N
1702348355.1,286047000.4,N
1702348375.9,286046998.6,N
1702348395.7,286046999.6,N
1702348415.5,286046999.3,N
1702348435.4,286047000.4,N
1702348455.2,286046999.3,N
1702348475.0,286047000.9,N
1702348475.9,286047000.9,N
1702348495.8,286047000.8,N
1702348515.6,286046998.2,N
1702348535.5,286047001.1,N
1702348555.3,286046998.8,N
1702348575.1,286046998.4,N
1702348595.9,286046998.5,N
1702348615.7,286046996.7,Y
1702348635.5,286046996.5,P
1702348655.4,286046996.9,N
1702348675.2,286046998.8,N
1702348695.1,286046998.6,N
1702348696.0,286046998.6,N
1702348715.8,286046999.5,N
1702348735.6,286046998.7,N
1702348755.5,286047000.7,N
1702348775.3,286047001.2,N
1702348795.1,286047000.4,N
1702348815.9,286046998.2,N
1702348835.7,286046998.7,N
1702348855.6,286046996.6,N
1702348875.4,286046999.4,N
1702348895.2,286047000.7,N
1702348915.1,286047000.2,N
1702348916.0,286047000.2,N
1702348935.8,286046998.5,N
1702348955.6,286047001.2,N
1702348975.5,286046999.3,N
1702348995.3,286046998.8,N
1702349015.2,286046997.6,N
1702349035.9,286046997.9,N
1702349055.7,286046995.3,Y
1702349075.6,286046997.3,P
1702349095.4,286046997.2,P
1702349115.3,286046996.9,P
1702349135.1,286046998.2,N
1702349136.0,286046998.2,N
1702349155.8,286046998.3,N
1702349175.7,286046997.3,Y
1702349195.5,286046998.9,P
1702349215.4,286047000.8,N
1702349235.2,286046999.7,N
1702349255.0,286047000.1,N
1702349255.9,286047000.1,N
1702349275.8,286046999.7,N
1702349295.6,286047001.0,N
1702349315.4,286047002.1,N
1702349335.3,286047000.2,N
1702349355.1,286047000.6,N
1702349375.9,286047000.7,N
1702349395.7,286047002.1,N
1702349415.5,286047001.1,N
1702349435.4,286047000.9,N
1702349455.2,286047001.0,N
1702349475.0,286047000.9,N
1702349476.0,286047000.9,N
1702349495.8,286047002.8,N
1702349515.6,286047000.0,N
1702349535.5,286047000.6,N
1702349555.3,286047002.6,N
1702349575.1,286047002.8,N
1702349595.9,286047000.2,N
1702349615.7,286047000.7,N
1702349635.6,286047000.8,N
1702349655.4,286046998.7,N
1702349675.2,286046999.1,N
1702349695.1,286046996.7,N
1702349696.0,286046996.7,N
1702349715.8,286046997.1,N
1702349735.6,286046999.5,N
1702349755.5,286046999.4,N
1702349775.3,286046998.3,N
1702349795.2,286047000.9,N
1702349815.9,286047000.0,N
1702349835.7,286047001.2,N
1702349855.6,286046999.3,N
1702349905.4,286046998.2,E
1702349915.4,286047000.0,N
1702349935.2,286047004.2,P
1702349955.0,286047004.0,N
1702349955.9,286047004.0,N
1702349975.8,286047003.2,N
1702349995.6,286047003.6,N
